Location: Unspecified
(55.7024°N, 37.6611°E)
Time: 19:11:25
(UTC+03:00)

Altair - Visible Passes

Search period start: 23 June 2025 00:00
Search period end: 03 July 2025 00:00
Orbit: 1502 x 1682 km, 47.2° (Epoch: 23 June)

Date Brightness Start Highest point End Pass type
(mag) Time Alt. Az. Time Alt. Az. Time Alt. Az.
23 Jun 7.6 01:00:39 10° WSW 01:09:30 52° S 01:18:40 10° ESE visible
23 Jun 7.9 22:33:02 10° SSW 22:41:02 35° SSE 22:49:12 10° E visible
24 Jun 7.6 00:35:32 10° WSW 00:44:21 51° S 00:53:28 10° ESE visible
24 Jun 7.8 02:39:15 10° W 02:47:58 45° SSW 02:57:00 10° SE visible
24 Jun 8.0 22:08:05 10° SSW 22:15:56 33° SSE 22:23:57 10° E visible
25 Jun 7.6 00:10:26 10° WSW 00:19:12 50° S 00:28:16 10° E visible
25 Jun 7.7 02:14:05 10° W 02:22:50 46° SSW 02:31:52 10° SE visible
25 Jun 7.6 23:45:19 10° WSW 23:54:04 50° S 00:03:04 10° E visible
26 Jun 7.7 01:48:56 10° W 01:57:41 47° SSW 02:06:44 10° SE visible
26 Jun 7.6 23:20:13 10° WSW 23:28:55 49° SSE 23:37:52 10° E visible
27 Jun 7.6 01:23:46 10° W 01:32:32 48° SSW 01:41:35 10° ESE visible
27 Jun 7.6 22:55:08 10° WSW 23:03:47 48° SSE 23:12:40 10° E visible
28 Jun 7.6 00:58:38 10° W 01:07:24 49° S 01:16:26 10° ESE visible
28 Jun 7.7 22:30:03 10° SW 22:38:39 47° SSE 22:47:27 10° E visible
29 Jun 7.6 00:33:29 10° W 00:42:14 50° S 00:51:17 10° ESE visible
29 Jun 8.0 02:37:37 10° W 02:45:32 32° SSW 02:53:41 10° SSE visible
29 Jun 7.7 22:04:58 10° SW 22:13:31 46° SSE 22:22:15 10° E visible
30 Jun 7.6 00:08:20 10° W 00:17:05 50° S 00:26:08 10° ESE visible
30 Jun 8.0 02:12:25 10° W 02:20:26 34° SSW 02:28:41 10° SSE visible
30 Jun 7.6 23:43:11 10° WSW 23:51:57 51° S 00:00:57 10° ESE visible
01 Jul 7.9 01:47:13 10° W 01:55:20 35° SSW 02:03:40 10° SSE visible
01 Jul 7.6 23:18:02 10° WSW 23:26:48 51° S 23:35:48 10° ESE visible
02 Jul 7.9 01:22:02 10° W 01:30:13 37° SSW 01:38:38 10° SE visible
02 Jul 7.6 22:52:54 10° WSW 23:01:39 51° S 23:10:37 10° ESE visible
